Location: ?ern� Novina
(50.6762°N, 14.8696°E)
Time: 18:01:55
(UTC+00:00)

Resurs 01 Rocket - Pass Details

Date: 03 March 2021
Orbit: 635 x 643 km, 98.0° (Epoch: 13 April)

Event Time Altitude Azimuth Distance (km) Brightness Sun altitude
Exits shadow 20:50:14 16° 292° (WNW) 1,679 4.3 -36.9°
Drops below altitude 10° 20:51:56 10° 313° (NW) 2,033 4.9 -37.0°
Sets 20:54:49 0° 333° (NNW) 2,949 5.9 -37.4°
